SWA3062 KSAN-KSFO

Flight info

Callsign SWA3062
Flight time N/A
Altitude 36000
Route PADRZ2 IKAYE DCT RIZIN DCT SPLNT DCT STOKD DCT SERFR SERFR4
Aircraft B38M/M-SDE1FGHILORVWXY/HB1

Departure

Time 2026-04-30 22:49
Airport San Diego International Airport (KSAN)

Arrival

Time N/A
Airport San Francisco International Airport (KSFO)
Time Latitude Longitude Altitude Speed Heading
2026-04-30 22:03 32.73337 -117.19775 25 ft 0 kts 285°
2026-04-30 22:34 32.73332 -117.19741 29 ft 4 kts 280°
2026-04-30 22:35 32.73348 -117.19716 28 ft 4 kts 193°
2026-04-30 22:36 32.73391 -117.19746 26 ft 0 kts 107°
2026-04-30 22:39 32.73390 -117.19740 25 ft 5 kts 107°
2026-04-30 22:40 32.73372 -117.19460 28 ft 16 kts 105°
2026-04-30 22:41 32.73259 -117.18996 27 ft 23 kts 107°
2026-04-30 22:41 32.73163 -117.18591 26 ft 28 kts 106°
2026-04-30 22:42 32.72956 -117.17758 27 ft 12 kts 108°
2026-04-30 22:43 32.72953 -117.17689 25 ft 0 kts 72°
2026-04-30 22:48 32.72965 -117.17641 25 ft 10 kts 70°
2026-04-30 22:49 32.73382 -117.19078 109 ft 159 kts 283°
2026-04-30 22:49 32.74680 -117.23097 2595 ft 202 kts 302°
2026-04-30 22:50 32.78714 -117.29679 6116 ft 276 kts 304°
2026-04-30 22:51 32.80990 -117.33392 8338 ft 284 kts 307°
2026-04-30 22:51 32.83444 -117.37200 10413 ft 296 kts 307°
2026-04-30 22:52 32.84733 -117.39205 11101 ft 312 kts 307°
2026-04-30 22:52 32.87418 -117.43384 12965 ft 323 kts 306°
2026-04-30 22:53 32.90190 -117.47703 14739 ft 332 kts 306°
2026-04-30 22:53 32.93015 -117.52107 16372 ft 339 kts 306°
2026-04-30 22:53 32.94469 -117.54372 16722 ft 348 kts 306°
2026-04-30 22:54 32.97405 -117.58949 16937 ft 345 kts 306°
2026-04-30 22:55 33.01862 -117.65908 16859 ft 371 kts 306°
2026-04-30 22:55 33.04955 -117.70745 16291 ft 357 kts 306°
2026-04-30 22:56 33.07700 -117.74302 15894 ft 347 kts 318°
2026-04-30 22:56 33.13112 -117.79801 15168 ft 338 kts 317°
2026-04-30 22:57 33.16675 -117.83429 14938 ft 337 kts 317°
2026-04-30 22:57 33.20170 -117.87173 14941 ft 337 kts 313°
2026-04-30 22:58 33.23466 -117.91157 14942 ft 337 kts 313°
2026-04-30 22:59 33.28450 -117.97110 15053 ft 340 kts 313°
2026-04-30 22:59 33.33466 -118.03097 17542 ft 345 kts 313°